Regional Weather Roundup
Issued by NWS Portland, ME

Home | Current Version | Previous Version | Text Only | Print | Product List | Glossary On
Versions: 1 2 3 4 5 6 7 8 9 10 11 12 13 14 15 16 17 18 19 20 21 22 23 24 25 26 27 28 29 30 31 32 33 34 35 36 37 38 39 40 41 42 43 44 45 46 47 48 49 50
259
ASUS41 KGYX 270610
RWRGYX
WEATHER ROUNDUP FOR MAINE AND NEW HAMPSHIRE
NATIONAL WEATHER SERVICE GRAY ME
200 AM EDT FRI MAY 27 2016

MEZ002-005-006-010-012-015-018-020-021-024-026-027-029-270700-
MAINE

CITY           SKY/WX    TMP DP  RH WIND       PRES   REMARKS
PORTLAND       CLOUDY    55  51  86 E6        30.16S
6HR MIN TEMP:  54; 6HR MAX TEMP:  62;

SANFORD        CLOUDY    55  48  76 E6        30.14S
BAR HARBOR     CLEAR     52  46  80 E9        30.22S
WISCASSET      CLEAR     55  50  83 E5        30.19R
6HR MIN TEMP:  53; 6HR MAX TEMP:  63;

ROCKLAND       CLEAR     53  51  93 E6        30.19S
FRYEBURG       CLOUDY    60  52  74 E3        30.15S
6HR MIN TEMP:  58; 6HR MAX TEMP:  72;

LEWISTONAUBURN CLOUDY    55  48  76 E3        30.17S
AUGUSTA        CLOUDY    55  50  83 SE6       30.19R
6HR MIN TEMP:  55; 6HR MAX TEMP:  67;

WATERVILLE     CLOUDY    58  50  75 VRB3      30.17R
BANGOR         CLOUDY    59  51  75 SE8       30.21S
6HR MIN TEMP:  59; 6HR MAX TEMP:  73;

GREENVILLE       N/A     53  48  83 VRB6      30.15S
6HR MIN TEMP:  53; 6HR MAX TEMP:  65;

MILLINOCKET    CLOUDY    55  50  83 SE6       30.20S
6HR MIN TEMP:  54; 6HR MAX TEMP:  65;

HOULTON        CLOUDY    50  45  83 SE9       30.22S
6HR MIN TEMP:  49; 6HR MAX TEMP:  58;

PRESQUE ISLE   CLOUDY    52  50  93 SE10      30.21S
6HR MIN TEMP:  48; 6HR MAX TEMP:  59;

FRENCHVILLE    CLOUDY    52  47  83 S8        30.18S
6HR MIN TEMP:  50; 6HR MAX TEMP:  58;

CARIBOU        CLOUDY    53  50  89 SE13      30.19F
6HR MIN TEMP:  52; 6HR MAX TEMP:  60;

$$

NHZ002-005-008-009-011-012-014-270700-
NEW HAMPSHIRE

CITY           SKY/WX    TMP DP  RH WIND       PRES   REMARKS
PORTSMOUTH     CLOUDY    56  52  86 E8        30.10R
ROCHESTER      CLOUDY    58  51  78 E6        30.11R
6HR MIN TEMP:  58; 6HR MAX TEMP:  66;

NASHUA         CLOUDY    62  55  77 CALM      30.10R
MANCHESTER     CLOUDY    61  53  75 CALM      30.09R
6HR MIN TEMP:  61; 6HR MAX TEMP:  71;

CONCORD        CLOUDY    61  55  81 CALM      30.10S
6HR MIN TEMP:  60; 6HR MAX TEMP:  67;

LACONIA        CLOUDY    62  52  69 NE8       30.13R
PLYMOUTH       FAIR      59  55  84 CALM      30.12R
BERLIN         CLOUDY    59  53  80 NW5       30.09F
6HR MIN TEMP:  59; 6HR MAX TEMP:  73; 6HR PCP: TRACE;

WHITEFIELD     CLOUDY    68  54  60 VRB3      30.06S
6HR MIN TEMP:  61; 6HR MAX TEMP:  72;

JAFFREY        CLOUDY    63  56  78 CALM      30.11R
6HR MIN TEMP:  63; 6HR MAX TEMP:  77;

KEENE          PTCLDY    64  59  82 CALM      30.08R
LEBANON        CLOUDY    67  55  65 NE5       30.06R
6HR MIN TEMP:  65; 6HR MAX TEMP:  74;

MT WASHINGTON  FOG       48  48 100 S25         N/A  VSB 0
6HR MIN TEMP:  47; 6HR MAX TEMP:  54;

$$

VTZ005-007-008-270700-
VERMONT

CITY           SKY/WX    TMP DP  RH WIND       PRES   REMARKS
ST JOHNSBURY     N/A     63  55  75 MISG      30.04S
MONTPELIER     CLOUDY    67  57  70 S5        30.09R
BURLINGTON       N/A    N/A N/A N/A MISG      29.99S
$$

MAZ007-012-024-CTZ003-RIZ002-NYZ038-NYZ072-270700-
SOUTHERN NEW ENGLAND AND NY

CITY           SKY/WX    TMP DP  RH WIND       PRES   REMARKS
BOSTON         CLOUDY    59  55  87 CALM      30.08S
WORCESTER      CLOUDY    66  57  72 CALM      30.11R
NANTUCKET      CLEAR     56  53  90 SE12      30.12F
PROVIDENCE     CLEAR     61  55  81 CALM      30.09S
HARTFORD       CLOUDY    69  53  56 S6        30.05S
ALBANY         CLOUDY    74  52  46 S10       30.02S
NEW YORK CITY  MOCLDY    71  64  78 CALM      30.05R
$$

ANZ081-ANZ082-ANZ150-NHZ014-MEZ023>029-270700-
COASTAL MARINE OBSERVATIONS

STATION/POSITION TIME  TEMP    WIND        PRES    WAVE
                       AIR SEA DIR/SP/G            HT/PER
                 (UTC) (F)     (DEG/KT/KT) (MB)    (FT/S)
MOUNT DESERT ROC 0600   50      50/ 14/ 15 1022.7F
MATINICUS ROCK   0600   52     100/ 10/ 11 1022.0R
ISLE OF SHOALS   0600   55     110/ 13/ 14 1019.2S
JEFFREYS LEDGE   0508      52                N/A     3/ 4
CASHES LEDGE BUO 0550   53 52  150/  6/  8 1021.3R   2/ 8
GEORGES BANK BUO 0550   53 52              1021.4R   3/ 8
$$

.............KEY..............
   WCI - WIND CHILL
   TC  - TEMPERATURE IN CELSIUS
   VSB - VISIBILITY IN MILES
   HX  - HEAT INDEX
   FAIR- INDICATES FEW OR NO CLOUDS BELOW 12,000 FT, WITH NO
         SIGNIFICANT WEATHER AND/OR OBSTRUCTIONS TO VISIBILITY.






USA.gov is the U.S. government's official web portal to all federal, state and local government web resources and services.